owner,sensor,date,latitude,longitude,vertical_datum,direction_of_sea_water_velocity,sea_water_speed,upward_sea_water_velocity,qcFlag 
TABS,ioos:station:wmo:42049:1,2019-01-01T00:00:00Z,28.3507,-96.0058,2.0,230.5671912,54.66266367,-99999.0,'11111222,11111222,99999999' 
TABS,ioos:station:wmo:42049:1,2019-01-01T00:30:00Z,28.3507,-96.0058,2.0,231.3723162,49.62734428,-99999.0,'11111222,11111222,99999999' 
TABS,ioos:station:wmo:42049:1,2019-01-01T01:00:00Z,28.3507,-96.0058,2.0,229.1122051,52.55314358,-99999.0,'11111222,11111222,99999999' 
TABS,ioos:station:wmo:42049:1,2019-01-01T01:30:00Z,28.3507,-96.0058,2.0,234.1966148,51.45291926,-99999.0,'11111222,11111222,99999999' 
TABS,ioos:station:wmo:42049:1,2019-01-01T02:00:00Z,28.3507,-96.0058,2.0,237.1145944,54.68219546,-99999.0,'11111222,11111222,99999999' 
TABS,ioos:station:wmo:42049:1,2019-01-01T02:30:00Z,28.3507,-96.0058,2.0,234.4549931,57.16128935,-99999.0,'11111222,11111222,99999999' 
TABS,ioos:station:wmo:42049:1,2019-01-01T03:00:00Z,28.3507,-96.0058,2.0,236.9362865,59.58945964,-99999.0,'11111222,11111222,99999999' 
TABS,ioos:station:wmo:42049:1,2019-01-01T03:30:00Z,28.3507,-96.0058,2.0,239.1094161,52.1236079,-99999.0,'11111222,11111222,99999999' 
TABS,ioos:station:wmo:42049:1,2019-01-01T04:00:00Z,28.3507,-96.0058,2.0,238.4836143,56.2232781,-99999.0,'11111222,11111222,99999999' 
TABS,ioos:station:wmo:42049:1,2019-01-01T04:30:00Z,28.3507,-96.0058,2.0,240.6178366,55.78574191,-99999.0,'11111222,11111222,99999999' 
TABS,ioos:station:wmo:42049:1,2019-01-01T05:00:00Z,28.3507,-96.0058,2.0,245.0680629,51.92918447,-99999.0,'11111222,11111222,99999999' 
TABS,ioos:station:wmo:42049:1,2019-01-01T05:30:00Z,28.3507,-96.0058,2.0,243.0131653,53.5060819,-99999.0,'11111222,11111222,99999999' 
TABS,ioos:station:wmo:42049:1,2019-01-01T06:00:00Z,28.3507,-96.0058,2.0,244.584825,49.23472149,-99999.0,'11111222,11111222,99999999' 
TABS,ioos:station:wmo:42049:1,2019-01-01T06:30:00Z,28.3507,-96.0058,2.0,245.0969807,52.72183988,-99999.0,'11111222,11111222,99999999' 
TABS,ioos:station:wmo:42049:1,2019-01-01T07:00:00Z,28.3507,-96.0058,2.0,241.6880953,50.33043811,-99999.0,'11111222,11111222,99999999' 
TABS,ioos:station:wmo:42049:1,2019-01-01T07:30:00Z,28.3507,-96.0058,2.0,241.5778028,46.78969331,-99999.0,'11111222,11111222,99999999' 
TABS,ioos:station:wmo:42049:1,2019-01-01T08:00:00Z,28.3507,-96.0058,2.0,237.2390932,51.63274155,-99999.0,'11111222,11111222,99999999' 
TABS,ioos:station:wmo:42049:1,2019-01-01T08:30:00Z,28.3507,-96.0058,2.0,235.5218748,55.68052083,-99999.0,'11111222,11111222,99999999' 
TABS,ioos:station:wmo:42049:1,2019-01-01T09:00:00Z,28.3507,-96.0058,2.0,231.0967198,59.25129703,-99999.0,'11111222,11111222,99999999' 
TABS,ioos:station:wmo:42049:1,2019-01-01T09:30:00Z,28.3507,-96.0058,2.0,230.2439423,57.4027961,-99999.0,'11111222,11111222,99999999' 
TABS,ioos:station:wmo:42049:1,2019-01-01T10:00:00Z,28.3507,-96.0058,2.0,237.5169506,57.2577724,-99999.0,'11111222,11111222,99999999' 
TABS,ioos:station:wmo:42049:1,2019-01-01T10:30:00Z,28.3507,-96.0058,2.0,230.8900129,56.29300578,-99999.0,'11111222,11111222,99999999' 
TABS,ioos:station:wmo:42049:1,2019-01-01T11:00:00Z,28.3507,-96.0058,2.0,233.1549875,59.06800572,-99999.0,'11111222,11111222,99999999' 
TABS,ioos:station:wmo:42049:1,2019-01-01T11:30:00Z,28.3507,-96.0058,2.0,234.6743883,59.57964921,-99999.0,'11111222,11111222,99999999' 
TABS,ioos:station:wmo:42049:1,2019-01-01T12:00:00Z,28.3507,-96.0058,2.0,231.9215477,54.91821009,-99999.0,'11111222,11111222,99999999' 
TABS,ioos:station:wmo:42049:1,2019-01-01T12:30:00Z,28.3507,-96.0058,2.0,233.4068157,55.42464795,-99999.0,'11111222,11111222,99999999' 
TABS,ioos:station:wmo:42049:1,2019-01-01T13:00:00Z,28.3507,-96.0058,2.0,231.7353097,51.36521196,-99999.0,'11111222,11111222,99999999' 
TABS,ioos:station:wmo:42049:1,2019-01-01T13:30:00Z,28.3507,-96.0058,2.0,229.4339617,54.14259876,-99999.0,'11111222,11111222,99999999' 
TABS,ioos:station:wmo:42049:1,2019-01-01T14:00:00Z,28.3507,-96.0058,2.0,229.3914514,62.79160613,-99999.0,'11111222,11111222,99999999' 
TABS,ioos:station:wmo:42049:1,2019-01-01T14:30:00Z,28.3507,-96.0058,2.0,230.1988135,62.2694564,-99999.0,'11111222,11111222,99999999' 
TABS,ioos:station:wmo:42049:1,2019-01-01T15:00:00Z,28.3507,-96.0058,2.0,229.9347703,65.34557139,-99999.0,'11111222,11111222,99999999' 
TABS,ioos:station:wmo:42049:1,2019-01-01T15:30:00Z,28.3507,-96.0058,2.0,229.4456675,70.96665414,-99999.0,'11111222,11111222,99999999' 
TABS,ioos:station:wmo:42049:1,2019-01-01T16:00:00Z,28.3507,-96.0058,2.0,232.7320871,75.78382545,-99999.0,'11111222,11111222,99999999' 
TABS,ioos:station:wmo:42049:1,2019-01-01T16:30:00Z,28.3507,-96.0058,2.0,233.9712691,82.52490048,-99999.0,'11111222,11111222,99999999' 
TABS,ioos:station:wmo:42049:1,2019-01-01T17:00:00Z,28.3507,-96.0058,2.0,235.1862536,84.8826702,-99999.0,'11111222,11111222,99999999' 
TABS,ioos:station:wmo:42049:1,2019-01-01T17:30:00Z,28.3507,-96.0058,2.0,239.124872,87.24315045,-99999.0,'11111222,11111222,99999999' 
TABS,ioos:station:wmo:42049:1,2019-01-01T18:00:00Z,28.3507,-96.0058,2.0,239.878253,87.95741015,-99999.0,'11111222,11111222,99999999' 
TABS,ioos:station:wmo:42049:1,2019-01-01T18:30:00Z,28.3507,-96.0058,2.0,240.1654911,89.95133907,-99999.0,'11111222,11111222,99999999' 
TABS,ioos:station:wmo:42049:1,2019-01-01T19:00:00Z,28.3507,-96.0058,2.0,241.9615134,95.1582524,-99999.0,'11111222,11111222,99999999' 
TABS,ioos:station:wmo:42049:1,2019-01-01T19:30:00Z,28.3507,-96.0058,2.0,243.5347111,97.25121696,-99999.0,'11111222,11111222,99999999' 
TABS,ioos:station:wmo:42049:1,2019-01-01T20:00:00Z,28.3507,-96.0058,2.0,246.6217812,100.3041619,-99999.0,'11111222,11111222,99999999' 
TABS,ioos:station:wmo:42049:1,2019-01-01T20:30:00Z,28.3507,-96.0058,2.0,248.3449016,99.37332892,-99999.0,'11111222,11111222,99999999' 
TABS,ioos:station:wmo:42049:1,2019-01-01T21:00:00Z,28.3507,-96.0058,2.0,248.9142358,102.2351236,-99999.0,'11111222,11111222,99999999' 
TABS,ioos:station:wmo:42049:1,2019-01-01T21:30:00Z,28.3507,-96.0058,2.0,251.3803478,97.31327402,-99999.0,'11111222,11111222,99999999' 
TABS,ioos:station:wmo:42049:1,2019-01-01T22:00:00Z,28.3507,-96.0058,2.0,251.377145,98.54974886,-99999.0,'11111222,11111222,99999999' 
TABS,ioos:station:wmo:42049:1,2019-01-01T22:30:00Z,28.3507,-96.0058,2.0,253.4711382,101.2331097,-99999.0,'11111222,11111222,99999999' 
TABS,ioos:station:wmo:42049:1,2019-01-01T23:00:00Z,28.3507,-96.0058,2.0,253.0512351,99.34476584,-99999.0,'11111222,11111222,99999999' 
TABS,ioos:station:wmo:42049:1,2019-01-01T23:30:00Z,28.3507,-96.0058,2.0,255.236794,92.3795459,-99999.0,'11111222,11111222,99999999' 
TABS,ioos:station:wmo:42049:1,2019-01-02T00:00:00Z,28.3507,-96.0058,2.0,254.0491156,92.50135134,-99999.0,'11111222,11111222,99999999' 
TABS,ioos:station:wmo:42049:1,2019-01-02T00:30:00Z,28.3507,-96.0058,2.0,256.5371421,83.07261703,-99999.0,'11111222,11111222,99999999' 
TABS,ioos:station:wmo:42049:1,2019-01-02T01:00:00Z,28.3507,-96.0058,2.0,255.2631193,78.38851765,-99999.0,'11111222,11111222,99999999' 
TABS,ioos:station:wmo:42049:1,2019-01-02T01:30:00Z,28.3507,-96.0058,2.0,257.0352707,70.91770019,-99999.0,'11111222,11111222,99999999' 
TABS,ioos:station:wmo:42049:1,2019-01-02T02:00:00Z,28.3507,-96.0058,2.0,256.9225208,69.25605028,-99999.0,'11111222,11111222,99999999' 
TABS,ioos:station:wmo:42049:1,2019-01-02T02:30:00Z,28.3507,-96.0058,2.0,254.6305548,59.53920137,-99999.0,'11111222,11111222,99999999' 
TABS,ioos:station:wmo:42049:1,2019-01-02T03:00:00Z,28.3507,-96.0058,2.0,255.718686,59.6327779,-99999.0,'11111222,11111222,99999999' 
TABS,ioos:station:wmo:42049:1,2019-01-02T03:30:00Z,28.3507,-96.0058,2.0,258.8589054,54.44599893,-99999.0,'11111222,11111222,99999999' 
TABS,ioos:station:wmo:42049:1,2019-01-02T04:00:00Z,28.3507,-96.0058,2.0,253.1064827,47.83411858,-99999.0,'11111222,11111222,99999999' 
TABS,ioos:station:wmo:42049:1,2019-01-02T04:30:00Z,28.3507,-96.0058,2.0,250.3010038,49.03987969,-99999.0,'11111222,11111222,99999999' 
TABS,ioos:station:wmo:42049:1,2019-01-02T05:00:00Z,28.3507,-96.0058,2.0,249.5811139,44.85848972,-99999.0,'11111222,11111222,99999999' 
TABS,ioos:station:wmo:42049:1,2019-01-02T05:30:00Z,28.3507,-96.0058,2.0,249.4390089,43.99225614,-99999.0,'11111222,11111222,99999999' 
TABS,ioos:station:wmo:42049:1,2019-01-02T06:00:00Z,28.3507,-96.0058,2.0,242.1187838,45.37731261,-99999.0,'11111222,11111222,99999999' 
TABS,ioos:station:wmo:42049:1,2019-01-02T06:30:00Z,28.3507,-96.0058,2.0,235.9706758,43.13701543,-99999.0,'11111222,11111222,99999999' 
TABS,ioos:station:wmo:42049:1,2019-01-02T07:00:00Z,28.3507,-96.0058,2.0,234.9190148,43.42917453,-99999.0,'11111222,11111222,99999999' 
TABS,ioos:station:wmo:42049:1,2019-01-02T07:30:00Z,28.3507,-96.0058,2.0,239.7210908,50.3367192,-99999.0,'11111222,11111222,99999999' 
TABS,ioos:station:wmo:42049:1,2019-01-02T08:00:00Z,28.3507,-96.0058,2.0,235.7249612,49.47073883,-99999.0,'11111222,11111222,99999999' 
TABS,ioos:station:wmo:42049:1,2019-01-02T08:30:00Z,28.3507,-96.0058,2.0,234.2268034,50.97734399,-99999.0,'11111222,11111222,99999999' 
TABS,ioos:station:wmo:42049:1,2019-01-02T09:00:00Z,28.3507,-96.0058,2.0,230.1633953,52.56042713,-99999.0,'11111222,11111222,99999999' 
TABS,ioos:station:wmo:42049:1,2019-01-02T09:30:00Z,28.3507,-96.0058,2.0,231.3347402,52.41972339,-99999.0,'11111222,11111222,99999999' 
TABS,ioos:station:wmo:42049:1,2019-01-02T10:00:00Z,28.3507,-96.0058,2.0,237.5857611,62.88809267,-99999.0,'11111222,11111222,99999999' 
TABS,ioos:station:wmo:42049:1,2019-01-02T10:30:00Z,28.3507,-96.0058,2.0,239.4946366,69.18646183,-99999.0,'11111222,11111222,99999999' 
TABS,ioos:station:wmo:42049:1,2019-01-02T11:00:00Z,28.3507,-96.0058,2.0,238.4163545,69.78685406,-99999.0,'11111222,11111222,99999999' 
TABS,ioos:station:wmo:42049:1,2019-01-02T11:30:00Z,28.3507,-96.0058,2.0,237.3535147,70.33101734,-99999.0,'11111222,11111222,99999999' 
TABS,ioos:station:wmo:42049:1,2019-01-02T12:00:00Z,28.3507,-96.0058,2.0,236.1258157,75.22882759,-99999.0,'11111222,11111222,99999999' 
TABS,ioos:station:wmo:42049:1,2019-01-02T12:30:00Z,28.3507,-96.0058,2.0,237.2997973,74.94841559,-99999.0,'11111222,11111222,99999999' 
TABS,ioos:station:wmo:42049:1,2019-01-02T13:00:00Z,28.3507,-96.0058,2.0,237.2704157,74.75913657,-99999.0,'11111222,11111222,99999999' 
TABS,ioos:station:wmo:42049:1,2019-01-02T13:30:00Z,28.3507,-96.0058,2.0,238.2694284,85.64033629,-99999.0,'11111222,11111222,99999999' 
TABS,ioos:station:wmo:42049:1,2019-01-02T14:00:00Z,28.3507,-96.0058,2.0,238.7941616,87.39474183,-99999.0,'11111222,11111222,99999999' 
TABS,ioos:station:wmo:42049:1,2019-01-02T14:30:00Z,28.3507,-96.0058,2.0,239.9292646,86.89517593,-99999.0,'11111222,11111222,99999999' 
TABS,ioos:station:wmo:42049:1,2019-01-02T15:00:00Z,28.3507,-96.0058,2.0,241.8617385,92.21888364,-99999.0,'11111222,11111222,99999999' 
TABS,ioos:station:wmo:42049:1,2019-01-02T15:30:00Z,28.3507,-96.0058,2.0,242.9510827,95.92178741,-99999.0,'11111222,11111222,99999999' 
TABS,ioos:station:wmo:42049:1,2019-01-02T16:00:00Z,28.3507,-96.0058,2.0,241.3087599,100.0658283,-99999.0,'11111222,11111222,99999999' 
TABS,ioos:station:wmo:42049:1,2019-01-02T16:30:00Z,28.3507,-96.0058,2.0,242.8354977,95.80733375,-99999.0,'11111222,11111222,99999999' 
TABS,ioos:station:wmo:42049:1,2019-01-02T17:00:00Z,28.3507,-96.0058,2.0,242.4412483,94.93088012,-99999.0,'11111222,11111222,99999999' 
TABS,ioos:station:wmo:42049:1,2019-01-02T17:30:00Z,28.3507,-96.0058,2.0,243.8519475,98.84577128,-99999.0,'11111222,11111222,99999999' 
TABS,ioos:station:wmo:42049:1,2019-01-02T18:00:00Z,28.3507,-96.0058,2.0,244.2028265,98.39583579,-99999.0,'11111222,11111222,99999999' 
TABS,ioos:station:wmo:42049:1,2019-01-02T18:30:00Z,28.3507,-96.0058,2.0,245.4180009,90.57924321,-99999.0,'11111222,11111222,99999999' 
TABS,ioos:station:wmo:42049:1,2019-01-02T19:00:00Z,28.3507,-96.0058,2.0,245.4087541,92.30153303,-99999.0,'11111222,11111222,99999999' 
TABS,ioos:station:wmo:42049:1,2019-01-02T19:30:00Z,28.3507,-96.0058,2.0,247.9042432,90.84149823,-99999.0,'11111222,11111222,99999999' 
TABS,ioos:station:wmo:42049:1,2019-01-02T20:00:00Z,28.3507,-96.0058,2.0,245.8775637,86.03264497,-99999.0,'11111222,11111222,99999999' 
TABS,ioos:station:wmo:42049:1,2019-01-02T20:30:00Z,28.3507,-96.0058,2.0,242.534304,93.92644995,-99999.0,'11111222,11111222,99999999' 
TABS,ioos:station:wmo:42049:1,2019-01-02T21:00:00Z,28.3507,-96.0058,2.0,242.9934932,90.62157635,-99999.0,'11111222,11111222,99999999' 
TABS,ioos:station:wmo:42049:1,2019-01-02T21:30:00Z,28.3507,-96.0058,2.0,240.4480369,86.77891507,-99999.0,'11111222,11111222,99999999' 
TABS,ioos:station:wmo:42049:1,2019-01-02T22:00:00Z,28.3507,-96.0058,2.0,237.3374662,87.19903497,-99999.0,'11111222,11111222,99999999' 
TABS,ioos:station:wmo:42049:1,2019-01-02T22:30:00Z,28.3507,-96.0058,2.0,237.0917914,86.34435824,-99999.0,'11111222,11111222,99999999' 
TABS,ioos:station:wmo:42049:1,2019-01-02T23:00:00Z,28.3507,-96.0058,2.0,236.1001675,82.70912525,-99999.0,'11111222,11111222,99999999' 
TABS,ioos:station:wmo:42049:1,2019-01-02T23:30:00Z,28.3507,-96.0058,2.0,233.9514239,80.75230337,-99999.0,'11111222,11111222,99999999' 
TABS,ioos:station:wmo:42049:1,2019-01-03T00:00:00Z,28.3507,-96.0058,2.0,228.606995,82.37852208,-99999.0,'11111222,11111222,99999999' 
TABS,ioos:station:wmo:42049:1,2019-01-03T00:30:00Z,28.3507,-96.0058,2.0,227.4732528,79.29813113,-99999.0,'11111222,11111222,99999999' 
TABS,ioos:station:wmo:42049:1,2019-01-03T01:00:00Z,28.3507,-96.0058,2.0,225.4039589,72.15497211,-99999.0,'11111222,11111222,99999999' 
TABS,ioos:station:wmo:42049:1,2019-01-03T01:30:00Z,28.3507,-96.0058,2.0,220.6917751,70.50682591,-99999.0,'11111222,11111222,99999999' 
TABS,ioos:station:wmo:42049:1,2019-01-03T02:00:00Z,28.3507,-96.0058,2.0,217.5401587,79.46544217,-99999.0,'11111222,11111222,99999999' 
TABS,ioos:station:wmo:42049:1,2019-01-03T02:30:00Z,28.3507,-96.0058,2.0,223.0114715,73.57632839,-99999.0,'11111222,11111222,99999999' 
TABS,ioos:station:wmo:42049:1,2019-01-03T03:00:00Z,28.3507,-96.0058,2.0,224.1888948,67.95976604,-99999.0,'11111222,11111222,99999999' 
TABS,ioos:station:wmo:42049:1,2019-01-03T03:30:00Z,28.3507,-96.0058,2.0,228.2655666,80.42967114,-99999.0,'11111222,11111222,99999999' 
TABS,ioos:station:wmo:42049:1,2019-01-03T04:00:00Z,28.3507,-96.0058,2.0,230.5051493,87.26354107,-99999.0,'11111222,11111222,99999999' 
TABS,ioos:station:wmo:42049:1,2019-01-03T04:30:00Z,28.3507,-96.0058,2.0,235.3293864,88.84546415,-99999.0,'11111222,11111222,99999999' 
TABS,ioos:station:wmo:42049:1,2019-01-03T05:00:00Z,28.3507,-96.0058,2.0,231.7739444,101.0082794,-99999.0,'11111222,11111222,99999999' 
TABS,ioos:station:wmo:42049:1,2019-01-03T05:30:00Z,28.3507,-96.0058,2.0,238.0528601,75.67116822,-99999.0,'11111222,11111222,99999999' 
TABS,ioos:station:wmo:42049:1,2019-01-03T06:00:00Z,28.3507,-96.0058,2.0,236.6359104,89.11680537,-99999.0,'11111222,11111222,99999999' 
TABS,ioos:station:wmo:42049:1,2019-01-03T06:30:00Z,28.3507,-96.0058,2.0,242.308778,83.98951006,-99999.0,'11111222,11111222,99999999' 
TABS,ioos:station:wmo:42049:1,2019-01-03T07:00:00Z,28.3507,-96.0058,2.0,244.7141141,70.09584866,-99999.0,'11111222,11111222,99999999' 
TABS,ioos:station:wmo:42049:1,2019-01-03T07:30:00Z,28.3507,-96.0058,2.0,234.8568295,66.29411512,-99999.0,'11111222,11111222,99999999' 
TABS,ioos:station:wmo:42049:1,2019-01-03T08:00:00Z,28.3507,-96.0058,2.0,237.2173909,60.74452239,-99999.0,'11111222,11111222,99999999' 
TABS,ioos:station:wmo:42049:1,2019-01-03T08:30:00Z,28.3507,-96.0058,2.0,239.1082028,70.66433329,-99999.0,'11111222,11111222,99999999' 
TABS,ioos:station:wmo:42049:1,2019-01-03T09:00:00Z,28.3507,-96.0058,2.0,237.0901426,72.88604873,-99999.0,'11111222,11111222,99999999' 
TABS,ioos:station:wmo:42049:1,2019-01-03T09:30:00Z,28.3507,-96.0058,2.0,236.5715557,69.75982583,-99999.0,'11111222,11111222,99999999' 
TABS,ioos:station:wmo:42049:1,2019-01-03T10:00:00Z,28.3507,-96.0058,2.0,246.1905849,54.59637442,-99999.0,'11111222,11111222,99999999' 
TABS,ioos:station:wmo:42049:1,2019-01-03T10:30:00Z,28.3507,-96.0058,2.0,237.3377234,72.80225409,-99999.0,'11111222,11111222,99999999' 
TABS,ioos:station:wmo:42049:1,2019-01-03T11:00:00Z,28.3507,-96.0058,2.0,233.0221521,64.95411457,-99999.0,'11111222,11111222,99999999' 
TABS,ioos:station:wmo:42049:1,2019-01-03T11:30:00Z,28.3507,-96.0058,2.0,227.762149,72.4778173,-99999.0,'11111222,11111222,99999999' 
TABS,ioos:station:wmo:42049:1,2019-01-03T12:00:00Z,28.3507,-96.0058,2.0,231.902651,69.48193506,-99999.0,'11111222,11111222,99999999' 
TABS,ioos:station:wmo:42049:1,2019-01-03T12:30:00Z,28.3507,-96.0058,2.0,229.8194993,72.45889938,-99999.0,'11111222,11111222,99999999' 
TABS,ioos:station:wmo:42049:1,2019-01-03T13:00:00Z,28.3507,-96.0058,2.0,222.3080946,74.38484389,-99999.0,'11111222,11111222,99999999' 
TABS,ioos:station:wmo:42049:1,2019-01-03T13:30:00Z,28.3507,-96.0058,2.0,221.9624908,73.26725394,-99999.0,'11111222,11111222,99999999' 
TABS,ioos:station:wmo:42049:1,2019-01-03T14:00:00Z,28.3507,-96.0058,2.0,224.7385189,72.91053765,-99999.0,'11111222,11111222,99999999' 
TABS,ioos:station:wmo:42049:1,2019-01-03T14:30:00Z,28.3507,-96.0058,2.0,222.8174756,74.09488579,-99999.0,'11111222,11111222,99999999' 
TABS,ioos:station:wmo:42049:1,2019-01-03T15:00:00Z,28.3507,-96.0058,2.0,227.967633,64.59599755,-99999.0,'11111222,11111222,99999999' 
TABS,ioos:station:wmo:42049:1,2019-01-03T15:30:00Z,28.3507,-96.0058,2.0,232.0242501,63.54382818,-99999.0,'11111222,11111222,99999999' 
TABS,ioos:station:wmo:42049:1,2019-01-03T16:00:00Z,28.3507,-96.0058,2.0,229.9430324,62.52869101,-99999.0,'11111222,11111222,99999999' 
TABS,ioos:station:wmo:42049:1,2019-01-03T16:30:00Z,28.3507,-96.0058,2.0,225.1851865,65.52085775,-99999.0,'11111222,11111222,99999999' 
TABS,ioos:station:wmo:42049:1,2019-01-03T17:00:00Z,28.3507,-96.0058,2.0,222.4410664,65.73453963,-99999.0,'11111222,11111222,99999999' 
TABS,ioos:station:wmo:42049:1,2019-01-03T17:30:00Z,28.3507,-96.0058,2.0,225.6167309,61.71985904,-99999.0,'11111222,11111222,99999999' 
TABS,ioos:station:wmo:42049:1,2019-01-03T18:00:00Z,28.3507,-96.0058,2.0,223.6697684,65.50280376,-99999.0,'11111222,11111222,99999999' 
TABS,ioos:station:wmo:42049:1,2019-01-03T18:30:00Z,28.3507,-96.0058,2.0,220.2421108,72.21105802,-99999.0,'11111222,11111222,99999999' 
TABS,ioos:station:wmo:42049:1,2019-01-03T19:00:00Z,28.3507,-96.0058,2.0,219.1393871,69.73871593,-99999.0,'11111222,11111222,99999999' 
TABS,ioos:station:wmo:42049:1,2019-01-03T19:30:00Z,28.3507,-96.0058,2.0,219.5802755,65.2109661,-99999.0,'11111222,11111222,99999999' 
TABS,ioos:station:wmo:42049:1,2019-01-03T20:00:00Z,28.3507,-96.0058,2.0,217.4364784,67.3152947,-99999.0,'11111222,11111222,99999999' 
TABS,ioos:station:wmo:42049:1,2019-01-03T20:30:00Z,28.3507,-96.0058,2.0,219.6114379,72.2887557,-99999.0,'11111222,11111222,99999999' 
TABS,ioos:station:wmo:42049:1,2019-01-03T21:00:00Z,28.3507,-96.0058,2.0,219.3616679,71.11125368,-99999.0,'11111222,11111222,99999999' 
TABS,ioos:station:wmo:42049:1,2019-01-03T21:30:00Z,28.3507,-96.0058,2.0,217.173509,67.87095476,-99999.0,'11111222,11111222,99999999' 
TABS,ioos:station:wmo:42049:1,2019-01-03T22:00:00Z,28.3507,-96.0058,2.0,218.1583611,67.31502804,-99999.0,'11111222,11111222,99999999' 
TABS,ioos:station:wmo:42049:1,2019-01-03T22:30:00Z,28.3507,-96.0058,2.0,217.4251797,67.85919024,-99999.0,'11111222,11111222,99999999' 
TABS,ioos:station:wmo:42049:1,2019-01-03T23:00:00Z,28.3507,-96.0058,2.0,217.6273243,68.05595125,-99999.0,'11111222,11111222,99999999' 
TABS,ioos:station:wmo:42049:1,2019-01-03T23:30:00Z,28.3507,-96.0058,2.0,214.1799887,65.80649284,-99999.0,'11111222,11111222,99999999' 
TABS,ioos:station:wmo:42049:1,2019-01-04T00:00:00Z,28.3507,-96.0058,2.0,219.9116047,65.5383506,-99999.0,'11111222,11111222,99999999' 
TABS,ioos:station:wmo:42049:1,2019-01-04T00:30:00Z,28.3507,-96.0058,2.0,214.0795217,64.01388365,-99999.0,'11111222,11111222,99999999' 
TABS,ioos:station:wmo:42049:1,2019-01-04T01:00:00Z,28.3507,-96.0058,2.0,217.9683705,63.8297368,-99999.0,'11111222,11111222,99999999' 
TABS,ioos:station:wmo:42049:1,2019-01-04T01:30:00Z,28.3507,-96.0058,2.0,221.0570469,60.36715084,-99999.0,'11111222,11111222,99999999' 
TABS,ioos:station:wmo:42049:1,2019-01-04T02:00:00Z,28.3507,-96.0058,2.0,222.7849344,65.32182254,-99999.0,'11111222,11111222,99999999' 
TABS,ioos:station:wmo:42049:1,2019-01-04T02:30:00Z,28.3507,-96.0058,2.0,219.4760961,72.65316579,-99999.0,'11111222,11111222,99999999' 
TABS,ioos:station:wmo:42049:1,2019-01-04T03:00:00Z,28.3507,-96.0058,2.0,223.0644605,64.70181837,-99999.0,'11111222,11111222,99999999' 
TABS,ioos:station:wmo:42049:1,2019-01-04T03:30:00Z,28.3507,-96.0058,2.0,223.9434638,65.59529937,-99999.0,'11111222,11111222,99999999' 
TABS,ioos:station:wmo:42049:1,2019-01-04T04:00:00Z,28.3507,-96.0058,2.0,226.8941481,68.01842397,-99999.0,'11111222,11111222,99999999' 
TABS,ioos:station:wmo:42049:1,2019-01-04T04:30:00Z,28.3507,-96.0058,2.0,234.6159866,69.63142466,-99999.0,'11111222,11111222,99999999' 
TABS,ioos:station:wmo:42049:1,2019-01-04T05:00:00Z,28.3507,-96.0058,2.0,236.2700841,68.38068294,-99999.0,'11111222,11111222,99999999' 
TABS,ioos:station:wmo:42049:1,2019-01-04T05:30:00Z,28.3507,-96.0058,2.0,235.1904199,72.4188318,-99999.0,'11111222,11111222,99999999' 
TABS,ioos:station:wmo:42049:1,2019-01-04T06:00:00Z,28.3507,-96.0058,2.0,237.7390372,78.04841831,-99999.0,'11111222,11111222,99999999' 
TABS,ioos:station:wmo:42049:1,2019-01-04T06:30:00Z,28.3507,-96.0058,2.0,245.4710953,73.99797835,-99999.0,'11111222,11111222,99999999' 
TABS,ioos:station:wmo:42049:1,2019-01-04T07:00:00Z,28.3507,-96.0058,2.0,248.0069584,72.87282758,-99999.0,'11111222,11111222,99999999' 
TABS,ioos:station:wmo:42049:1,2019-01-04T07:30:00Z,28.3507,-96.0058,2.0,250.9807063,69.81090531,-99999.0,'11111222,11111222,99999999' 
TABS,ioos:station:wmo:42049:1,2019-01-04T08:00:00Z,28.3507,-96.0058,2.0,251.9750179,71.97212308,-99999.0,'11111222,11111222,99999999' 
TABS,ioos:station:wmo:42049:1,2019-01-04T08:30:00Z,28.3507,-96.0058,2.0,255.8674031,65.16213778,-99999.0,'11111222,11111222,99999999' 
TABS,ioos:station:wmo:42049:1,2019-01-04T09:00:00Z,28.3507,-96.0058,2.0,257.7047899,64.00803465,-99999.0,'11111222,11111222,99999999' 
TABS,ioos:station:wmo:42049:1,2019-01-04T09:30:00Z,28.3507,-96.0058,2.0,260.6580237,64.74868493,-99999.0,'11111222,11111222,99999999' 
TABS,ioos:station:wmo:42049:1,2019-01-04T10:00:00Z,28.3507,-96.0058,2.0,263.9095635,60.70257985,-99999.0,'11111222,11111222,99999999' 
TABS,ioos:station:wmo:42049:1,2019-01-04T10:30:00Z,28.3507,-96.0058,2.0,264.2259228,48.80759879,-99999.0,'11111222,11111222,99999999' 
TABS,ioos:station:wmo:42049:1,2019-01-04T11:00:00Z,28.3507,-96.0058,2.0,269.5453619,45.41142698,-99999.0,'11111222,11111222,99999999' 
TABS,ioos:station:wmo:42049:1,2019-01-04T11:30:00Z,28.3507,-96.0058,2.0,273.287277,35.9291038,-99999.0,'11111222,11111222,99999999' 
TABS,ioos:station:wmo:42049:1,2019-01-04T12:00:00Z,28.3507,-96.0058,2.0,278.8149138,29.95376604,-99999.0,'11111222,11111222,99999999' 
TABS,ioos:station:wmo:42049:1,2019-01-04T12:30:00Z,28.3507,-96.0058,2.0,286.1130586,16.46685459,-99999.0,'11111222,11111222,99999999' 
TABS,ioos:station:wmo:42049:1,2019-01-04T13:00:00Z,28.3507,-96.0058,2.0,316.1062719,5.495243398,-99999.0,'11133222,11111222,99999999' 
TABS,ioos:station:wmo:42049:1,2019-01-04T13:30:00Z,28.3507,-96.0058,2.0,66.3627054,4.115264269,-99999.0,'11133222,11111222,99999999' 
TABS,ioos:station:wmo:42049:1,2019-01-04T14:00:00Z,28.3507,-96.0058,2.0,88.75340722,10.11239339,-99999.0,'11111222,11111222,99999999' 
TABS,ioos:station:wmo:42049:1,2019-01-04T14:30:00Z,28.3507,-96.0058,2.0,110.452208,16.79894342,-99999.0,'11111222,11111222,99999999' 
TABS,ioos:station:wmo:42049:1,2019-01-04T15:00:00Z,28.3507,-96.0058,2.0,117.0126022,16.0286244,-99999.0,'11111222,11111222,99999999' 
TABS,ioos:station:wmo:42049:1,2019-01-04T15:30:00Z,28.3507,-96.0058,2.0,137.8401406,18.26579317,-99999.0,'11111222,11111222,99999999' 
TABS,ioos:station:wmo:42049:1,2019-01-04T16:00:00Z,28.3507,-96.0058,2.0,144.9576816,23.38989953,-99999.0,'11111222,11111222,99999999' 